Weather History for Kansas City, MO

Change the Weather History Date:

Saturday, July 6, 2013

  Actual Average Record
Temperature  
Mean Temperature 80 °F -  
Max Temperature 91 °F 86 °F 105 °F (2012)
Min Temperature 71 °F 68 °F 63 °F (2006)
Cooling Degree Days 16    
Growing Degree Days 30 (Base 50)    
Moisture  
Dew Point 62 °F    
Average Humidity 53    
Maximum Humidity 68    
Minimum Humidity 42    
Precipitation  
Precipitation 0.00 in - - ()
Sea Level Pressure  
Sea Level Pressure 29.91 in    
Wind  
Wind Speed 11 mph (South)    
Max Wind Speed 18 mph    
Max Gust Speed 28 mph    
Visibility 10 miles    
Events      
Averages and records for this station are not official NWS values.
T = Trace of Precipitation, MM = Missing Value Source: NWS Daily Summary

Daily Weather History Graph

Daily Weather History Graph

Search for Another Location

Airport:

Trip Planner

Search our weather history database for the weather conditions in past years. The results will help you decide how hot, cold, wet, or windy it might be!

Date:

Astronomy

Jul. 06, 2013 Rise Set
Actual Time 5:58 AM CDT 8:47 PM CDT
Civil Twilight 5:27 AM CDT 9:19 PM CDT
Nautical Twilight 4:47 AM CDT 9:58 PM CDT
Astronomical Twilight 4:01 AM CDT 10:44 PM CDT
Moon 4:45 AM CDT (7/6) 7:29 PM CDT (7/6)
Length of Visible Light 15h 52m
Length of Day
14h 48m
Waning Crescent, 2% of the Moon is Illuminated
Jul 6
Waning Crescent
Jul 8
New
Jul 15
First Quarter
Jul 22
Full
Jul 29
Last Quarter

Hourly Weather History & Observations

Time (CDT) Temp. Heat Index Dew Point Humidity Pressure Visibility Wind Dir Wind Speed Gust Speed Precip Events Conditions
12:54 AM 78.1 °F - 60.1 °F 54% 29.92 in 10.0 mi SSE 11.5 mph - N/A   Clear
1:54 AM 75.9 °F - 61.0 °F 60% 29.92 in 10.0 mi SSE 8.1 mph - N/A   Clear
2:54 AM 75.0 °F - 61.0 °F 62% 29.92 in 10.0 mi SSE 4.6 mph - N/A   Clear
3:54 AM 73.9 °F - 60.1 °F 62% 29.92 in 10.0 mi South 10.4 mph - N/A   Clear
4:54 AM 73.0 °F - 60.1 °F 64% 29.93 in 10.0 mi South 6.9 mph - N/A   Clear
5:54 AM 71.1 °F - 60.1 °F 68% 29.93 in 10.0 mi SSW 3.5 mph - N/A   Clear
6:54 AM 73.0 °F - 59.0 °F 61% 29.94 in 10.0 mi South 5.8 mph - N/A   Scattered Clouds
7:54 AM 73.9 °F - 61.0 °F 64% 29.95 in 10.0 mi South 6.9 mph - N/A   Clear
8:54 AM 78.1 °F - 62.1 °F 58% 29.96 in 10.0 mi SSW 9.2 mph - N/A   Mostly Cloudy
9:54 AM 81.0 °F 82.2 °F 63.0 °F 54% 29.94 in 10.0 mi SSW 15.0 mph 21.9 mph N/A   Clear
10:54 AM 81.0 °F 81.9 °F 62.1 °F 52% 29.93 in 10.0 mi SSW 11.5 mph 21.9 mph N/A   Mostly Cloudy
11:54 AM 84.0 °F 85.4 °F 64.0 °F 51% 29.92 in 10.0 mi South 15.0 mph - N/A   Scattered Clouds
12:54 PM 87.1 °F 88.3 °F 64.0 °F 46% 29.90 in 10.0 mi South 18.4 mph 25.3 mph N/A   Clear
1:54 PM 89.1 °F 90.0 °F 63.0 °F 42% 29.89 in 10.0 mi South 18.4 mph 27.6 mph N/A   Clear
2:54 PM 90.0 °F 91.3 °F 64.0 °F 42% 29.88 in 10.0 mi South 17.3 mph 24.2 mph N/A   Clear
3:54 PM 88.0 °F 88.7 °F 63.0 °F 43% 29.89 in 10.0 mi South 16.1 mph - N/A   Clear
4:54 PM 88.0 °F 88.7 °F 63.0 °F 43% 29.89 in 10.0 mi South 17.3 mph - N/A   Clear
5:54 PM 86.0 °F 87.3 °F 64.0 °F 48% 29.88 in 10.0 mi South 13.8 mph 20.7 mph N/A   Clear
6:54 PM 82.9 °F 84.0 °F 63.0 °F 51% 29.89 in 10.0 mi SSW 12.7 mph - N/A   Clear
7:54 PM 82.0 °F 82.4 °F 60.1 °F 47% 29.89 in 10.0 mi South 10.4 mph - N/A   Clear
8:54 PM 82.0 °F 82.4 °F 60.1 °F 47% 29.89 in 10.0 mi South 12.7 mph 20.7 mph N/A   Clear
9:54 PM 81.0 °F 81.7 °F 61.0 °F 50% 29.88 in 10.0 mi South 11.5 mph - N/A   Clear
10:54 PM 82.0 °F 83.0 °F 62.1 °F 51% 29.90 in 10.0 mi South 12.7 mph - N/A   Clear
11:54 PM 81.0 °F 82.2 °F 63.0 °F 54% 29.91 in 10.0 mi South 11.5 mph - N/A   Clear